Wind_Speed
38 38 38 39 39 39 39 38 38 38 38 38 38 37 37 37 37 37 36 36 36 36 35 35 35 35 35 35 35 35 35 35 35 35 35 35 35 35 35 35 35 35 36 36 36 36 36 36 36 36 36 35 35 35 35 35 35 35 35 35 35 35 35 35 36 36 36 36 36 36 36 36 36 37 37 37 38 38 39 39 39 40 40 41 41 42
38 38 38 38 37 37 38 37 37 36 37 37 37 36 36 36 36 35 35 35 34 34 34 34 34 34 33 33 33 33 33 33 33 33 34 34 34 34 34 34 34 34 34 34 34 34 34 34 34 34 34 34 34 34 34 34 34 34 34 35 35 35 35 35 35 35 35 35 36 36 36 36 36 36 37 37 37 38 38 39 39 39 40 41 41 42
36 37 37 37 36 36 36 36 35 35 35 35 35 35 35 34 34 34 33 33 33 33 32 32 32 32 32 32 32 32 32 32 32 32 32 33 33 33 33 33 33 33 33 33 33 33 33 33 33 33 33 33 33 33 33 34 34 34 34 34 34 35 35 35 35 35 35 35 35 35 35 36 36 36 36 37 37 38 38 39 39 40 40 41 42 42
35 35 36 35 35 34 34 34 34 34 34 34 34 33 33 32 32 32 32 31 31 31 31 31 31 31 30 31 31 31 31 31 31 31 31 31 31 31 31 31 31 31 32 32 32 32 32 32 32 32 33 33 33 33 33 34 34 34 34 34 34 35 35 35 35 35 35 35 35 35 35 36 36 36 37 37 37 38 38 39 39 40 41 41 42 42
33 33 34 33 33 32 33 32 32 32 32 31 31 31 31 30 30 30 30 29 29 29 29 29 29 29 29 29 29 29 30 30 30 30 30 30 30 30 30 30 30 31 31 31 31 31 32 32 32 33 33 33 33 33 34 34 34 34 34 35 35 35 35 35 35 35 35 35 36 36 36 36 36 37 37 37 38 38 38 39 39 39 40 40 41 41
31 31 31 31 30 30 30 30 30 29 29 29 29 28 28 28 28 28 28 27 27 27 28 28 28 28 28 28 28 28 28 28 28 28 29 29 29 29 29 29 30 30 30 31 31 31 32 32 33 33 33 33 34 34 34 34 34 34 34 35 35 35 35 35 35 36 36 36 36 36 36 37 37 37 37 37 37 37 38 38 38 38 38 38 38 39
28 28 28 28 28 28 28 28 27 27 26 26 26 26 26 26 26 26 26 26 26 26 26 26 27 27 27 27 27 27 27 27 27 27 28 28 28 28 29 29 30 30 30 31 31 32 32 32 33 33 33 33 33 33 34 34 34 34 34 34 35 35 35 36 36 36 36 36 37 37 37 37 37 37 37 37 36 36 36 36 36 36 36 36 36 37
26 26 25 25 25 25 25 25 25 25 24 24 24 24 24 24 24 24 25 25 25 25 25 25 25 26 26 26 26 26 26 26 26 27 27 27 28 28 29 29 30 30 31 31 32 32 32 32 33 33 33 33 33 33 33 33 33 34 34 34 35 35 35 36 36 36 36 36 37 37 37 37 37 36 36 35 35 34 34 34 34 34 34 34 35 35
23 22 22 22 22 22 22 22 22 22 23 23 23 23 23 23 23 23 23 24 24 24 23 23 23 24 25 25 25 25 25 25 25 26 26 27 28 28 29 29 30 30 31 31 32 32 32 32 32 32 32 32 32 33 33 33 33 33 34 34 35 35 35 36 36 36 36 36 36 36 36 36 36 35 35 34 33 33 32 32 32 33 33 33 34 34
20 20 19 19 20 20 20 20 20 21 21 22 22 22 22 22 22 22 22 22 22 22 22 22 22 23 23 24 25 25 25 25 25 25 26 26 27 28 28 29 30 30 31 31 31 31 32 32 32 32 32 32 32 32 33 33 33 33 34 34 34 35 35 35 36 36 36 36 36 36 36 35 35 34 34 33 33 32 32 32 32 32 32 33 33 34
17 17 17 17 18 18 18 19 19 20 20 20 21 21 22 22 21 21 21 21 21 21 21 21 21 22 22 23 24 25 26 26 26 26 26 26 26 27 28 29 29 30 30 30 31 31 31 32 32 32 32 33 33 33 33 33 34 34 34 34 34 35 35 35 35 36 36 36 36 35 35 35 34 34 33 33 32 32 32 32 32 32 32 33 33 33
15 16 16 16 17 17 18 18 18 19 19 19 20 20 21 21 21 20 20 21 21 21 21 21 21 21 22 22 23 24 25 26 26 26 26 25 26 26 27 28 28 29 29 30 30 31 31 32 32 32 33 33 33 34 34 34 34 34 34 34 35 35 35 35 35 35 35 35 35 35 34 34 33 33 33 32 32 32 32 32 32 32 32 32 32 33
15 15 16 16 16 17 17 18 18 18 18 18 19 19 19 20 20 20 20 21 21 21 21 21 21 21 21 21 22 22 23 24 25 25 25 24 24 25 25 26 27 28 29 29 30 31 31 32 32 33 33 33 34 34 34 34 34 34 35 35 35 35 35 35 35 35 35 34 34 34 33 33 33 32 32 32 32 32 32 32 32 32 32 32 32 32
15 15 16 16 16 17 17 17 17 18 18 18 18 19 19 19 20 20 20 20 21 21 21 21 21 20 20 20 20 21 21 22 23 24 24 23 23 23 24 25 26 27 28 28 29 30 31 31 32 32 33 33 34 34 34 34 35 35 35 35 35 35 35 35 35 34 34 34 33 33 33 32 32 32 32 32 32 32 32 32 32 32 33 33 33 33
15 15 15 16 16 16 17 17 17 17 18 18 18 18 18 19 19 19 19 20 20 20 20 20 21 20 19 19 19 19 19 20 21 22 22 22 22 22 22 23 24 26 27 27 28 29 30 31 32 32 33 33 34 34 34 34 35 35 35 35 35 35 35 35 34 34 34 33 33 33 32 32 32 32 32 31 32 32 32 32 32 33 33 33 33 33
15 15 15 16 16 16 16 17 17 17 17 17 18 18 18 18 18 19 19 19 19 19 19 19 20 20 20 19 18 17 17 18 19 20 21 22 21 21 21 21 23 24 26 27 28 29 30 31 31 32 33 33 34 34 34 35 35 35 36 36 36 36 35 35 35 34 34 33 33 32 32 32 32 31 31 31 31 32 32 32 33 33 33 34 34 34
15 15 15 15 16 16 16 16 16 17 17 17 17 17 17 18 18 18 18 18 18 18 18 18 18 18 18 18 18 17 16 16 17 18 20 21 21 21 21 21 22 23 25 26 27 28 29 30 31 32 32 33 34 34 35 35 35 36 36 36 36 36 36 35 35 34 34 33 33 33 32 32 32 31 31 31 31 32 32 32 33 33 34 34 34 35
15 15 15 15 15 16 16 16 16 16 17 17 17 17 17 17 17 17 18 18 18 18 18 18 18 17 17 17 16 16 15 15 16 17 19 20 20 21 20 21 21 22 24 25 26 28 29 30 31 31 32 33 34 34 35 35 35 36 36 36 36 36 36 35 35 34 34 34 33 33 33 32 32 32 32 32 32 32 32 33 33 34 34 34 35 35
15 15 15 15 15 16 16 16 16 16 16 17 17 17 17 17 17 17 17 18 18 18 18 18 18 18 17 16 16 15 15 15 15 16 18 19 20 20 20 20 21 22 23 24 26 27 28 29 30 31 32 33 33 34 34 35 35 35 36 36 36 36 35 35 35 35 34 34 34 33 33 33 32 32 32 32 32 33 33 33 34 34 35 35 36 36
15 15 15 15 15 16 16 16 16 16 16 17 17 17 17 17 17 17 18 18 18 18 18 18 18 18 18 17 16 15 15 15 15 16 17 18 19 20 20 20 20 21 22 24 25 26 27 28 29 31 32 32 33 34 34 35 35 35 35 35 35 35 35 35 35 35 34 34 34 34 33 33 33 33 33 33 33 34 34 34 35 35 36 36 37 37
15 15 15 15 15 16 16 16 16 16 17 17 17 17 17 17 17 17 17 17 18 18 18 18 19 19 19 18 17 16 16 15 15 16 16 18 19 20 20 19 19 20 21 22 24 25 26 27 28 29 31 32 32 33 34 34 34 35 35 35 35 35 35 35 35 34 34 34 34 34 34 34 34 34 34 34 34 35 35 36 36 37 37 37 38 38
15 15 15 16 16 16 17 17 17 17 17 17 17 17 17 17 17 17 18 18 18 18 18 19 19 20 20 19 18 17 17 16 16 16 16 17 18 19 20 19 20 20 20 21 22 23 25 26 27 28 30 30 31 32 33 33 34 34 35 35 35 35 35 34 34 34 34 34 34 34 34 34 34 34 35 35 35 36 37 37 38 38 38 39 39 40
15 15 16 16 16 17 17 17 17 18 18 17 17 17 17 17 17 18 18 18 18 18 19 19 20 20 20 20 20 19 18 17 17 17 17 18 18 19 20 19 19 20 20 20 21 22 23 24 26 27 28 29 30 31 32 33 33 34 34 34 34 34 34 34 34 34 34 34 34 34 34 34 34 35 35 36 37 37 38 39 39 40 40 40 40 41
15 16 16 16 17 17 17 18 18 18 18 18 18 18 18 18 18 18 18 18 19 19 19 19 20 20 21 21 21 20 19 19 19 19 19 19 19 20 20 20 19 19 19 20 20 20 21 23 24 25 27 28 29 30 31 32 32 33 33 33 33 33 33 33 33 33 33 33 33 34 34 34 35 35 36 37 37 38 39 40 40 41 41 41 41 41
16 16 17 17 17 17 18 18 18 18 18 18 18 18 18 18 18 19 19 19 19 19 19 19 20 20 21 22 22 22 21 20 20 20 20 20 20 21 21 21 20 19 19 19 20 20 20 21 22 24 25 26 28 29 30 31 31 32 32 32 32 32 32 32 32 32 33 33 33 33 34 34 35 36 36 37 38 39 40 40 41 41 41 41 41 41
17 17 17 18 18 18 18 18 19 19 19 18 18 18 18 18 19 19 19 19 19 19 19 19 20 21 21 22 23 24 23 22 22 21 21 21 21 22 22 22 21 20 19 19 19 19 20 20 21 22 23 24 26 27 28 29 30 31 31 31 31 31 32 32 32 32 32 32 33 33 34 34 35 36 37 38 39 39 40 41 41 41 41 41 41 41
17 18 18 18 19 19 19 19 19 19 19 19 19 19 19 19 19 19 19 19 19 19 19 20 20 21 21 23 24 25 24 24 23 23 23 23 23 23 23 23 22 21 20 19 19 19 19 20 20 21 22 23 24 26 27 28 28 29 30 30 30 31 31 31 31 31 32 32 33 33 34 34 35 36 37 38 39 40 40 41 41 41 41 40 40 40
18 18 19 19 19 19 20 20 20 20 20 20 20 20 19 19 19 19 19 19 19 20 20 20 21 21 22 23 24 25 26 25 24 24 24 24 24 24 25 25 24 23 21 20 19 19 19 20 20 20 21 22 23 24 25 26 27 27 28 29 29 30 30 30 31 31 31 32 32 33 34 34 35 36 37 38 39 39 40 40 40 40 40 39 39 39
18 19 19 19 20 20 20 20 20 20 20 20 20 20 20 19 19 19 20 20 20 20 21 21 21 22 22 23 24 26 27 27 26 25 25 25 25 25 26 26 26 25 24 22 20 19 19 20 20 21 21 21 22 23 24 25 25 26 27 28 28 29 29 30 30 30 31 31 32 33 33 34 35 36 37 37 38 39 39 39 39 39 39 39 38 38
19 19 19 20 20 20 20 20 20 20 20 20 20 20 20 20 20 20 20 20 21 21 21 22 22 23 23 23 24 26 27 28 27 26 26 26 26 26 27 27 27 27 27 25 23 20 19 19 20 21 21 21 21 22 23 24 24 25 26 26 27 28 28 29 29 30 30 31 32 32 33 34 35 35 36 37 37 38 38 38 38 38 38 38 38 38
19 19 20 20 20 20 20 20 20 20 20 20 21 21 21 20 20 21 21 21 21 22 22 23 23 24 24 24 25 26 28 29 28 28 27 27 27 27 28 28 28 29 29 28 27 25 22 21 20 21 21 21 22 22 23 23 24 25 25 26 26 27 28 28 29 29 30 30 31 32 32 33 34 35 35 36 36 37 37 37 38 38 38 38 38 38
20 20 20 20 20 20 20 20 20 21 21 21 21 21 21 21 21 21 22 22 22 22 23 23 24 24 25 25 26 27 28 29 29 29 28 28 28 28 28 28 29 29 30 30 30 29 27 25 23 22 22 22 22 22 23 23 24 25 25 26 26 27 27 28 29 29 30 30 31 31 32 33 33 34 35 35 35 36 36 36 37 37 38 38 38 38
20 21 21 21 21 21 21 21 21 21 21 21 22 22 22 22 22 22 22 23 23 23 23 24 24 25 26 26 27 28 29 30 30 30 30 29 29 29 29 29 29 29 30 30 30 30 30 29 27 25 24 23 23 23 24 24 25 25 26 26 26 27 28 28 29 29 29 30 30 31 31 32 33 33 34 34 34 35 35 35 36 36 37 38 38 38
21 21 21 21 21 21 21 21 21 22 22 22 22 22 23 23 23 23 23 23 24 24 24 25 25 26 26 27 27 28 30 31 31 31 31 30 30 30 30 30 30 30 30 30 30 31 31 31 30 29 27 25 24 24 25 25 26 26 26 26 27 28 28 29 29 29 30 30 30 31 31 32 32 33 33 33 33 34 34 34 34 35 36 37 37 38
22 22 22 22 22 22 22 22 22 22 22 23 23 23 23 23 23 24 24 24 24 25 25 25 26 26 27 28 28 29 30 31 32 32 32 31 31 31 30 30 31 31 31 31 31 31 31 31 31 31 30 28 27 26 26 26 27 27 27 27 28 28 29 30 30 30 30 31 31 31 31 32 32 32 32 33 33 33 33 33 33 34 34 35 36 37
22 22 22 22 22 22 22 22 22 23 23 23 23 23 23 24 24 24 25 25 25 25 26 26 27 27 28 28 29 29 30 31 32 33 33 32 32 32 31 31 31 31 32 32 32 32 32 32 31 31 31 31 30 28 28 28 28 28 28 28 29 29 30 30 31 31 31 31 32 32 32 32 32 32 32 32 32 32 32 32 32 33 33 33 34 35
23 23 23 23 23 23 23 23 23 23 23 23 24 24 24 24 24 25 25 25 26 26 26 27 27 28 29 29 30 30 30 31 32 33 33 33 33 33 32 32 32 32 32 32 32 32 32 32 32 32 32 32 32 31 30 30 30 30 29 29 29 30 30 31 31 32 32 32 32 33 33 33 33 33 33 33 33 32 32 32 32 32 32 32 33 33
23 23 23 23 23 23 23 23 23 23 24 24 24 24 24 24 25 25 25 26 26 26 26 27 28 28 29 30 30 31 31 32 32 33 33 34 34 34 33 33 33 33 33 33 33 33 33 33 33 33 33 33 33 32 32 32 32 32 32 31 31 31 31 32 32 32 33 33 33 33 34 34 34 34 34 34 33 33 33 32 32 32 32 32 32 32
23 23 23 23 23 23 23 23 23 24 24 24 24 24 25 25 25 25 25 26 26 26 27 27 27 28 29 30 31 31 32 32 33 33 34 34 34 34 34 34 34 34 33 33 34 34 34 34 34 34 35 34 34 33 33 33 34 34 34 33 32 32 32 32 33 33 34 34 34 34 34 35 35 35 34 34 34 34 34 33 33 33 33 33 32 32
23 23 23 23 23 23 23 24 24 24 24 24 25 25 25 25 25 25 26 26 26 26 27 27 27 28 29 30 31 32 32 33 33 34 34 34 35 35 35 35 34 34 34 34 34 34 34 34 35 35 35 35 35 35 34 34 35 35 36 35 34 33 33 33 34 34 35 35 35 35 35 36 35 35 35 35 35 34 34 34 34 34 34 34 34 34
23 23 23 23 24 24 24 24 24 24 24 25 25 25 25 25 25 26 26 26 27 27 27 27 27 28 28 29 30 32 32 33 34 34 34 35 35 35 35 35 35 35 34 34 34 34 34 34 35 35 35 35 36 36 35 35 35 36 37 37 36 36 35 34 34 35 35 36 36 36 36 36 36 36 36 35 35 35 35 35 35 35 35 35 36 36
23 23 23 23 24 24 24 24 24 25 25 25 25 25 26 26 26 26 26 26 27 27 27 27 27 27 28 29 30 31 32 33 33 34 34 35 35 35 36 36 36 35 35 35 34 34 34 34 34 35 35 35 36 36 36 36 36 36 37 37 37 37 36 35 35 35 36 36 36 37 37 37 37 37 36 36 36 35 35 35 35 36 36 36 36 36
23 23 23 23 24 24 24 24 25 25 25 25 25 26 26 26 26 26 26 26 27 27 27 27 27 27 27 28 29 30 31 32 33 34 34 35 35 35 36 36 36 36 35 35 35 34 34 34 34 34 35 35 35 36 36 36 36 36 37 37 38 38 38 37 37 36 36 36 37 37 37 37 37 37 37 37 36 36 35 35 35 36 36 36 36 36
23 23 23 24 24 24 24 25 25 25 25 25 26 26 26 26 26 26 26 26 27 27 27 27 27 27 27 27 28 28 30 31 32 33 34 34 35 35 35 36 36 36 36 35 35 35 34 34 34 34 34 34 35 35 36 36 36 36 37 37 38 38 38 38 38 38 37 37 37 37 37 38 38 38 37 37 36 36 35 35 35 35 35 36 36 35
23 23 23 24 24 24 24 25 25 25 25 26 26 26 27 27 27 27 27 27 27 27 27 27 27 27 27 27 27 28 28 29 31 32 33 34 34 35 35 35 35 36 36 35 35 35 34 34 34 34 34 34 34 34 35 36 36 37 37 37 37 38 38 38 38 38 38 37 37 37 37 38 38 38 38 37 36 36 35 35 35 35 35 35 35 35
23 23 23 24 24 24 25 25 25 26 26 26 26 27 27 27 27 27 27 27 27 28 28 28 28 27 27 27 27 27 28 28 29 30 31 33 33 34 34 35 35 35 35 35 35 35 34 34 34 34 34 34 33 33 34 34 35 36 37 37 37 38 38 38 38 38 38 38 37 37 37 38 38 38 38 37 37 36 36 35 35 36 36 36 36 35
23 23 24 24 24 25 25 25 25 26 26 26 27 27 27 28 28 28 28 28 28 28 28 28 28 28 28 28 28 28 27 28 28 29 30 31 32 33 33 34 34 34 34 34 34 34 34 34 34 34 34 33 33 33 33 33 34 35 36 37 37 38 38 37 37 37 38 38 38 38 38 38 38 38 38 37 37 37 36 36 36 36 36 36 36 36
23 23 24 24 24 25 25 25 25 26 26 26 27 27 27 28 28 28 28 28 28 28 28 28 28 28 28 28 28 28 28 28 28 28 29 30 31 32 32 33 33 33 33 33 33 33 33 33 33 33 33 33 33 33 33 33 33 34 36 37 37 37 38 37 37 37 37 37 37 37 38 38 38 38 38 38 38 37 37 36 36 36 36 36 36 36
23 24 24 24 24 25 25 25 25 26 26 26 26 27 27 28 28 28 28 29 29 29 29 29 29 29 28 28 29 29 29 28 28 29 29 30 31 31 32 32 32 33 33 32 32 32 32 32 32 31 31 32 33 33 33 33 33 34 35 36 37 37 37 37 37 37 37 37 37 37 37 37 38 38 38 39 39 38 38 37 37 36 36 36 37 36
24 24 24 24 25 25 25 25 26 26 26 26 26 27 27 28 28 28 29 29 29 29 29 29 29 29 29 29 29 29 29 29 29 29 29 30 31 31 32 32 32 32 32 32 32 32 32 31 31 30 30 30 31 32 33 33 33 34 34 35 36 37 37 37 38 38 38 37 37 37 37 37 37 38 38 39 39 39 38 38 38 37 37 37 37 37
24 24 25 25 25 25 25 26 26 26 26 26 26 27 27 27 28 28 29 29 29 29 30 30 30 29 29 29 29 29 29 29 29 29 30 30 31 32 32 33 33 33 33 33 32 32 32 31 31 30 30 29 30 30 31 33 33 34 34 35 35 36 37 37 38 38 38 37 37 37 37 37 37 37 38 39 39 39 39 39 38 38 38 38 38 37
Wind_Direction
269 270 270 270 271 272 273 274 274 275 276 277 278 278 279 280 281 281 282 282 283 283 284 284 284 284 285 285 286 286 286 287 287 287 288 288 289 289 289 290 290 290 291 291 291 291 292 292 292 292 292 293 293 293 293 293 293 294 294 294 294 294 294 294 294 293 293 293 293 293 293 293 293 293 292 292 292 291 291 291 291 291 290 290 290 289
268 269 270 270 271 272 273 274 274 275 276 277 278 278 279 280 280 281 281 282 282 283 283 283 284 284 285 285 286 286 287 287 288 288 289 289 290 290 290 291 291 291 292 292 292 292 293 293 293 293 294 294 294 294 294 295 295 295 295 295 295 295 295 295 295 295 294 294 294 294 294 294 294 294 293 293 293 293 293 293 293 293 293 293 292 292
268 269 269 270 270 271 272 274 274 275 275 276 277 278 278 279 280 280 281 282 282 282 283 283 284 284 285 285 286 287 287 288 289 289 290 290 291 291 291 292 292 293 293 293 293 294 294 294 294 295 295 295 296 296 296 296 296 296 296 296 296 296 296 295 295 295 295 295 295 295 295 295 295 295 295 295 295 295 296 296 296 295 295 295 294 294
268 269 269 270 270 271 272 273 274 274 275 275 276 277 278 279 280 280 281 281 282 282 283 283 284 285 285 286 287 288 288 289 290 290 291 291 292 292 293 293 294 294 294 295 295 296 296 296 296 297 297 297 298 298 298 298 298 297 297 297 297 297 296 296 296 296 296 296 296 297 297 297 297 297 297 297 297 297 297 297 297 297 296 296 295 294
268 268 269 270 270 270 271 272 272 273 274 275 275 277 278 278 279 279 280 281 282 283 283 284 285 286 287 287 288 289 290 290 291 291 292 293 293 294 294 295 295 296 296 297 297 298 298 298 299 299 299 299 299 299 299 299 298 298 298 298 297 297 297 297 297 298 298 298 299 299 299 299 299 298 298 298 298 297 297 297 297 297 296 296 296 295
267 267 267 269 269 269 270 271 271 272 273 274 275 276 277 277 278 279 280 281 282 283 284 285 286 287 288 289 289 290 291 292 292 293 293 294 295 296 296 297 298 298 299 299 299 300 300 300 300 300 300 300 299 299 299 299 298 298 298 298 298 298 299 299 299 300 300 300 300 300 300 299 298 298 298 297 297 298 298 298 298 298 299 299 299 299
266 266 266 267 268 269 269 270 271 272 273 274 275 276 276 277 278 279 280 281 282 284 285 286 287 288 289 289 290 291 292 293 294 294 295 296 297 298 298 299 299 300 300 300 300 300 300 300 299 299 299 299 298 298 298 298 298 299 299 299 300 300 300 301 301 301 301 300 300 299 299 298 298 298 298 298 298 299 300 301 301 302 303 303 303 304
265 265 265 265 267 268 269 270 271 272 273 274 275 276 277 278 279 280 281 282 283 284 286 287 288 289 290 290 291 292 293 294 295 296 297 298 299 299 300 300 301 300 300 300 300 299 299 299 298 298 298 298 298 298 298 299 299 299 300 300 300 301 301 301 301 301 300 300 299 299 299 298 298 298 299 300 300 301 302 303 304 305 305 306 307 307
264 264 264 264 265 267 269 270 272 273 274 275 277 278 279 280 280 281 282 284 285 285 286 287 288 290 290 292 292 293 294 295 296 297 298 299 299 300 300 300 300 300 299 299 299 299 299 298 298 298 298 299 299 299 300 300 300 301 301 301 301 301 300 300 300 300 300 300 300 299 299 300 300 300 301 301 302 303 303 304 305 306 306 307 308 308
262 263 263 264 265 267 269 272 274 275 276 277 278 279 280 281 282 283 284 285 285 286 287 288 289 290 292 293 294 295 296 296 296 297 297 298 298 299 299 299 299 299 299 299 299 299 299 299 300 300 301 301 302 302 302 302 302 302 301 301 301 301 301 301 301 301 301 301 301 301 301 301 302 302 302 302 302 303 303 304 305 306 307 308 309 309
263 264 265 267 268 269 271 273 275 276 277 279 281 282 282 283 283 284 285 285 286 286 287 289 290 291 293 294 296 297 297 297 297 297 297 297 298 298 298 298 298 299 299 300 300 301 301 302 302 303 304 304 304 304 304 304 303 303 302 302 302 302 302 302 302 302 302 302 303 303 303 303 303 302 302 302 302 302 303 304 305 306 307 308 309 310
268 268 270 271 273 274 274 275 275 276 277 279 280 282 283 283 284 285 285 286 286 287 288 289 290 291 292 293 294 295 296 296 296 297 297 297 298 299 299 299 300 301 301 302 303 304 304 305 305 305 306 306 306 305 305 304 304 303 303 303 303 303 303 303 303 303 303 303 303 303 303 303 303 302 302 302 302 302 303 304 305 306 307 309 310 310
272 273 274 275 276 277 277 277 277 278 277 278 278 279 280 282 283 285 285 286 287 288 288 289 289 289 290 290 290 291 292 293 294 295 296 297 298 299 300 301 302 303 304 305 305 306 306 306 306 306 306 306 306 305 305 305 304 304 304 304 304 304 304 304 304 304 304 304 304 304 304 304 303 303 303 303 303 303 303 304 305 306 307 308 309 310
276 276 276 277 277 277 277 278 278 278 278 278 278 278 279 281 282 284 285 286 286 287 288 288 288 287 287 287 287 288 290 291 293 294 296 297 298 300 301 302 303 304 305 306 306 306 306 306 306 306 306 305 305 305 305 305 305 305 305 305 304 304 304 304 304 304 304 304 305 305 305 305 305 305 304 304 304 304 304 304 305 306 306 307 308 308
277 277 278 277 277 277 278 278 278 279 279 279 280 280 281 282 282 283 284 284 285 286 287 287 288 288 287 287 287 288 290 292 294 296 298 299 300 302 303 304 305 305 306 306 306 306 306 306 306 305 305 305 305 305 305 305 305 305 305 305 305 305 305 305 305 305 305 306 306 306 307 307 307 307 306 306 305 305 305 305 305 306 306 306 307 307
278 278 278 278 278 278 279 279 279 279 280 280 280 281 281 281 282 282 282 283 284 285 286 287 289 290 290 290 290 291 293 295 297 298 300 301 302 304 305 306 307 306 307 307 306 306 306 306 306 306 306 306 306 306 306 305 305 305 305 305 305 305 305 306 306 307 307 308 308 309 309 309 309 309 309 308 308 307 307 306 306 306 306 306 306 306
279 279 279 279 279 279 279 279 279 279 279 280 280 280 280 280 281 282 282 282 283 284 285 285 286 288 290 292 294 295 296 298 300 300 301 302 304 306 307 308 309 308 308 307 307 306 306 306 306 306 306 306 306 306 306 305 305 305 305 305 305 306 306 307 308 308 309 310 310 310 311 311 311 311 311 311 310 310 309 308 308 307 307 307 306 306
279 279 279 279 279 279 279 279 279 279 279 279 280 280 280 281 281 282 282 282 283 284 284 284 284 285 287 290 293 296 298 301 302 303 304 304 306 308 310 311 311 310 309 308 308 308 307 307 307 307 307 306 306 306 305 305 305 304 305 305 305 306 307 308 308 309 310 311 311 312 312 313 313 313 313 313 312 312 311 310 310 309 309 308 307 307
280 280 280 279 280 279 279 279 279 279 280 280 280 281 281 281 282 282 282 283 283 284 286 287 287 288 288 290 293 296 300 303 305 306 306 307 308 310 312 314 313 313 312 311 310 309 309 308 308 307 307 306 306 305 305 304 304 304 304 305 305 306 307 308 309 310 310 311 312 313 313 314 314 315 314 314 314 313 313 312 311 311 310 309 309 308
282 281 281 280 280 280 280 280 280 280 280 281 281 281 281 282 282 283 283 284 286 287 288 290 291 292 292 293 295 299 303 306 308 309 310 310 311 312 314 316 316 315 314 313 312 311 310 309 308 307 306 306 305 304 304 304 304 304 304 305 305 306 307 308 309 309 310 311 312 313 314 315 315 315 315 315 315 314 314 313 312 312 311 311 310 310
285 284 283 283 282 281 280 280 280 280 280 280 281 281 281 282 283 285 286 288 289 291 292 294 295 296 297 298 300 303 306 309 312 313 313 314 314 315 316 318 318 318 316 314 313 312 310 309 307 306 305 304 304 304 303 303 303 304 304 305 305 306 307 307 308 309 310 311 312 313 314 314 315 315 315 315 315 314 314 313 313 312 312 311 311 310
288 287 286 284 283 282 281 280 279 279 279 280 280 281 282 284 286 288 289 291 292 294 296 298 299 300 301 302 303 306 309 312 314 316 317 317 317 317 318 320 320 320 318 316 314 312 310 308 307 306 305 304 304 303 303 303 303 304 304 304 305 306 306 307 308 309 310 311 312 313 313 314 314 315 315 314 314 314 313 313 313 312 312 311 311 310
289 288 287 285 283 282 281 280 279 279 279 280 281 283 284 286 288 290 291 293 294 296 298 300 301 302 303 304 306 308 312 315 317 318 320 320 319 319 319 321 322 322 320 318 316 313 311 309 307 306 305 304 304 303 303 303 303 303 304 304 305 305 306 307 308 309 310 311 311 312 313 313 314 314 314 314 313 313 313 312 312 312 311 311 310 310
290 288 287 285 284 283 282 281 280 280 281 282 283 284 286 287 289 290 291 293 295 297 298 300 302 304 306 307 309 311 314 318 320 321 322 322 321 320 320 321 323 323 321 320 318 316 313 310 308 307 306 305 304 303 303 303 303 303 303 304 304 305 306 307 308 309 310 310 311 311 312 312 313 313 313 313 313 312 312 312 311 311 311 310 310 309
291 290 288 287 286 285 284 283 282 282 283 283 284 285 286 287 288 290 291 292 294 297 299 301 304 306 308 310 311 313 315 319 321 322 323 323 322 321 321 321 322 324 323 322 321 319 316 313 311 308 307 305 304 304 303 303 303 303 303 304 305 306 306 307 308 309 309 310 310 311 311 311 312 312 312 312 312 312 311 311 311 310 310 310 309 309
293 292 291 290 288 287 286 285 284 283 283 283 283 284 285 286 287 289 291 292 295 297 300 302 305 307 309 311 312 313 315 318 321 322 323 323 323 321 320 321 322 324 325 325 324 322 320 317 313 311 308 306 305 304 303 303 303 303 304 305 306 306 307 308 308 309 309 309 310 310 310 311 311 311 311 311 311 311 311 311 310 310 310 309 309 309
294 294 293 291 290 289 287 286 285 284 283 283 283 283 283 285 287 289 291 293 296 299 301 303 306 308 310 311 312 313 314 317 320 321 322 322 322 321 320 320 322 324 326 328 328 326 323 320 317 314 311 308 306 305 304 304 304 304 305 306 307 307 308 308 308 309 309 309 309 309 310 310 311 311 311 311 311 311 311 311 310 310 310 309 309 309
294 293 292 290 289 288 286 285 285 284 284 283 283 284 284 286 288 290 292 295 297 300 302 304 306 308 310 311 312 312 313 316 318 320 321 321 321 320 320 320 322 324 327 330 331 330 327 324 321 318 315 312 309 307 305 305 305 306 306 307 307 307 308 308 308 308 308 309 309 309 310 311 311 312 312 312 312 312 312 311 311 311 310 310 309 309
292 290 289 288 287 286 285 284 284 284 284 285 285 286 287 289 291 293 294 297 299 302 303 305 306 308 310 311 312 312 313 314 316 318 319 320 320 320 320 321 323 324 326 329 331 332 330 327 324 322 319 316 312 309 307 307 306 306 306 307 307 307 307 307 308 308 308 309 309 310 311 312 312 313 313 314 314 313 313 313 312 312 311 311 310 310
290 288 287 285 285 285 284 285 285 286 286 287 288 289 290 292 293 295 296 298 301 303 304 306 307 308 309 311 311 311 311 312 314 316 318 319 320 320 321 323 324 325 326 328 330 331 331 329 327 326 324 321 317 313 310 308 307 306 306 306 307 307 307 307 308 308 309 310 310 311 312 313 314 314 315 315 316 316 315 315 314 313 313 312 311 311
288 287 286 286 286 286 286 287 287 288 289 290 291 292 293 294 296 297 298 300 302 303 304 306 307 308 309 310 311 310 310 311 313 315 317 318 320 321 322 323 324 325 326 327 329 330 331 331 330 329 327 325 321 317 313 311 309 308 307 307 307 307 307 307 308 309 310 311 312 313 314 315 316 316 317 318 318 318 317 317 316 315 314 313 312 312
289 289 288 288 289 289 289 290 291 291 292 293 294 294 296 296 297 298 299 300 302 303 304 305 306 307 309 309 310 310 309 310 311 313 316 318 319 320 322 323 324 325 326 327 328 329 330 331 332 331 330 328 324 321 317 314 312 310 309 308 308 308 308 308 309 309 311 312 313 314 315 316 317 318 319 320 320 320 319 319 318 317 316 314 313 312
292 292 292 291 292 292 293 293 294 294 294 295 296 296 297 297 298 299 299 300 301 303 304 305 306 307 308 308 309 309 309 309 311 313 315 317 318 320 321 322 323 325 326 327 328 329 330 331 331 332 331 330 327 325 321 318 316 314 312 311 311 310 310 310 310 310 311 312 313 314 316 317 319 320 321 321 321 321 320 319 318 317 316 315 314 312
293 293 293 293 294 294 295 295 295 296 296 296 297 297 298 298 299 299 300 300 301 303 304 305 306 306 307 307 308 308 308 309 310 312 314 315 317 319 320 322 323 324 325 326 327 328 329 329 330 331 331 330 329 327 324 322 319 317 316 315 314 313 312 312 311 311 312 312 313 314 316 317 319 320 321 321 321 321 320 319 318 317 316 315 314 313
293 293 293 294 294 295 295 296 296 296 297 297 297 297 298 298 299 299 300 301 302 303 304 305 305 306 306 307 307 308 308 309 310 311 313 314 316 318 319 321 322 323 324 325 326 327 328 328 329 329 329 329 329 328 326 324 322 320 319 318 317 316 315 314 313 312 312 313 314 314 316 317 318 319 320 320 320 320 320 319 318 317 316 315 314 313
292 292 293 293 294 294 295 296 296 296 296 297 297 297 298 298 299 299 300 301 302 303 304 305 305 305 306 306 306 307 307 308 309 310 312 313 315 317 318 320 321 322 323 324 325 326 327 327 328 328 328 328 328 328 326 325 323 321 320 319 318 317 317 316 314 314 313 314 314 315 315 316 317 318 318 319 319 319 319 319 319 318 317 315 314 313
291 292 292 293 293 294 295 295 296 296 296 297 297 298 298 298 299 299 300 301 302 303 304 304 305 305 305 306 306 306 307 308 308 310 311 312 314 316 317 319 320 321 322 324 325 325 326 326 327 327 327 327 327 327 327 325 323 322 320 320 319 319 318 317 316 315 315 315 315 315 315 315 316 316 317 317 318 318 319 319 319 318 317 316 315 314
291 291 292 293 293 294 295 295 296 296 297 297 297 298 298 298 299 299 300 301 301 302 303 303 304 304 305 305 306 306 307 307 308 309 310 312 313 315 316 318 319 320 322 323 324 325 325 326 326 327 327 327 327 327 327 326 324 322 321 320 320 319 319 318 317 316 316 315 315 315 315 315 315 315 315 316 317 318 319 319 319 319 318 317 316 315
291 291 292 292 293 294 294 295 295 296 297 297 297 298 298 298 299 299 299 300 300 301 301 302 303 303 304 305 305 306 306 307 308 309 310 311 312 314 315 317 318 319 320 322 323 324 325 325 326 326 326 326 326 326 326 325 324 322 321 321 320 319 319 318 317 317 316 315 315 315 314 314 314 314 315 316 317 318 319 320 320 320 320 319 318 317
290 291 291 292 293 293 294 295 295 296 297 297 298 298 298 298 299 299 299 299 300 300 301 301 302 303 303 304 304 305 306 306 307 308 309 311 312 313 314 315 317 318 319 320 321 323 323 324 325 325 325 325 325 326 326 325 324 323 322 321 320 320 320 319 318 317 316 316 315 315 314 314 313 314 315 316 317 319 320 321 322 322 322 321 320 319
290 290 291 292 293 294 294 295 296 296 297 297 298 298 298 298 299 299 299 299 300 300 300 301 302 302 303 304 304 305 306 307 307 308 309 310 311 312 313 314 315 316 317 319 320 321 322 323 323 324 324 324 324 325 325 325 324 323 322 321 320 320 320 320 318 317 316 316 315 314 314 313 313 314 315 316 318 320 321 323 324 324 324 323 322 321
289 290 291 292 293 294 294 295 296 297 297 297 298 298 298 298 298 299 299 299 299 300 300 301 301 302 303 303 304 304 305 306 307 308 309 309 310 311 312 313 314 315 316 317 318 319 320 321 322 322 323 323 323 323 324 323 323 322 321 321 320 320 319 319 318 317 316 316 315 314 314 313 313 314 315 317 318 320 323 325 326 326 325 324 323 322
289 290 291 292 293 294 295 296 297 297 297 298 298 298 298 298 299 299 299 299 299 299 300 300 301 301 301 302 302 303 304 305 306 307 307 308 309 310 311 312 312 313 314 316 317 318 319 319 320 321 321 321 322 322 322 322 322 321 321 320 320 320 319 319 318 317 316 316 315 315 314 314 314 314 315 317 318 321 323 325 327 326 325 324 323 322
290 291 292 293 294 295 296 297 297 298 298 298 299 299 299 299 299 299 299 299 299 299 299 299 299 300 300 300 300 301 302 303 304 305 306 307 308 309 309 310 311 312 313 314 315 316 317 318 318 319 319 320 320 321 321 321 321 321 320 320 320 319 319 319 318 317 316 316 315 315 315 315 314 314 315 316 318 320 323 325 325 325 324 323 322 321
291 292 293 294 295 296 297 297 298 298 299 299 299 299 300 300 300 300 299 299 299 299 298 299 299 299 299 299 299 300 300 302 303 303 304 305 306 307 308 309 310 311 312 312 313 314 315 316 317 317 318 318 319 319 320 320 320 320 319 319 319 318 318 318 318 317 317 316 316 316 316 315 315 314 315 316 317 319 322 323 324 323 322 321 321 320
293 293 294 295 296 296 297 298 298 299 300 300 300 300 300 300 300 300 300 299 299 299 299 299 299 299 298 298 298 299 299 300 301 302 303 304 304 306 306 307 308 309 310 311 312 313 314 315 315 316 317 317 318 318 318 319 318 318 318 318 317 317 317 318 318 318 318 317 317 317 316 316 315 315 315 316 317 319 320 322 322 322 321 321 321 321
294 294 295 296 296 297 298 298 299 299 300 300 300 300 300 300 300 300 300 300 299 299 299 299 299 299 299 299 298 298 299 299 299 300 301 301 302 303 304 305 306 307 308 310 311 312 313 313 314 315 316 316 316 316 317 317 317 317 316 316 317 317 317 318 318 318 318 318 318 317 317 316 316 316 316 316 317 318 319 320 321 321 321 321 321 322
294 295 295 296 297 297 298 298 299 299 299 300 300 300 300 300 300 300 300 300 300 299 299 299 299 299 299 299 299 299 299 299 298 298 299 299 300 301 302 303 304 305 307 308 309 310 311 312 313 314 314 315 315 315 315 315 316 316 316 316 316 317 317 318 318 318 318 318 318 318 318 318 317 317 317 317 317 318 319 319 320 320 321 321 322 323
294 295 296 296 297 297 297 298 298 299 299 299 300 300 300 300 300 300 300 300 300 300 300 299 299 299 299 299 299 299 299 299 299 299 299 299 299 300 301 302 303 304 305 306 307 308 309 310 311 312 313 313 313 313 314 315 315 315 316 316 317 317 318 318 318 318 318 318 318 318 319 318 318 318 318 318 318 318 318 319 319 320 321 321 322 323
295 296 296 296 297 297 297 298 298 299 299 300 300 300 300 300 300 300 300 300 300 300 300 299 299 299 299 299 298 298 299 299 299 299 299 299 299 300 301 301 302 303 304 305 306 307 308 308 309 310 311 312 313 313 314 315 316 316 316 316 317 317 318 318 318 318 318 318 319 319 319 319 319 319 319 318 318 317 318 318 318 319 320 321 322 324
296 296 297 297 297 298 298 298 299 299 300 300 300 300 300 300 300 300 300 300 300 300 300 299 299 299 299 298 298 298 298 298 298 299 299 299 300 300 301 301 302 303 304 305 306 306 307 308 309 310 311 312 313 314 315 316 316 316 316 316 316 317 317 318 318 318 318 319 319 320 320 320 319 319 319 319 318 317 317 318 319 320 321 321 322 323
Height
3075 3074 3074 3074 3074 3074 3073 3073 3073 3073 3072 3072 3072 3072 3071 3071 3070 3070 3069 3069 3068 3068 3067 3066 3066 3065 3064 3064 3063 3063 3062 3061 3060 3059 3059 3058 3057 3057 3056 3055 3054 3054 3053 3052 3051 3050 3049 3049 3048 3047 3047 3046 3045 3044 3044 3043 3042 3041 3040 3040 3039 3038 3038 3037 3036 3035 3034 3034 3033 3033 3032 3031 3030 3030 3029 3028 3027 3026 3026 3025 3024 3024 3023 3022 3021 3021
3073 3072 3072 3071 3072 3072 3071 3070 3071 3071 3070 3069 3069 3069 3069 3068 3068 3067 3067 3066 3066 3065 3064 3064 3063 3063 3062 3061 3061 3060 3059 3059 3058 3057 3056 3055 3055 3054 3053 3053 3052 3051 3050 3049 3049 3048 3047 3046 3045 3045 3044 3043 3043 3042 3041 3040 3039 3039 3038 3037 3036 3035 3034 3034 3033 3032 3032 3031 3030 3030 3029 3028 3027 3027 3026 3025 3024 3023 3022 3022 3021 3020 3019 3018 3018 3017
3070 3070 3069 3069 3069 3069 3069 3068 3068 3068 3068 3067 3066 3066 3066 3066 3065 3065 3064 3064 3063 3063 3062 3061 3061 3060 3059 3059 3058 3058 3057 3056 3055 3054 3054 3053 3052 3051 3051 3050 3049 3049 3048 3047 3046 3045 3044 3044 3043 3042 3042 3041 3040 3039 3039 3038 3037 3036 3035 3034 3033 3033 3032 3031 3030 3029 3029 3028 3027 3027 3026 3025 3024 3024 3023 3022 3021 3020 3019 3018 3017 3016 3015 3014 3014 3013
3069 3068 3067 3067 3068 3067 3067 3066 3066 3066 3065 3065 3064 3064 3064 3064 3063 3062 3062 3061 3061 3060 3059 3059 3058 3058 3057 3056 3056 3055 3054 3054 3053 3052 3051 3051 3050 3049 3048 3048 3047 3046 3045 3044 3044 3043 3042 3041 3040 3040 3039 3038 3037 3037 3036 3035 3034 3033 3032 3031 3031 3030 3029 3028 3027 3027 3026 3025 3024 3024 3023 3022 3021 3020 3019 3019 3018 3017 3016 3015 3014 3013 3012 3011 3010 3010
3066 3066 3065 3065 3065 3065 3064 3064 3064 3064 3063 3063 3062 3062 3062 3061 3061 3060 3060 3059 3059 3058 3057 3056 3056 3055 3054 3054 3053 3053 3052 3051 3050 3050 3049 3048 3048 3047 3046 3045 3044 3044 3043 3042 3041 3040 3039 3039 3038 3037 3036 3035 3035 3034 3033 3032 3031 3030 3029 3029 3028 3027 3026 3025 3024 3024 3023 3022 3021 3020 3019 3019 3018 3017 3016 3015 3015 3014 3013 3012 3011 3010 3009 3009 3008 3007
3064 3064 3064 3064 3063 3063 3063 3062 3062 3062 3061 3061 3060 3060 3060 3059 3059 3058 3058 3057 3057 3056 3055 3054 3054 3053 3052 3052 3051 3051 3050 3049 3049 3048 3047 3046 3045 3045 3044 3043 3042 3041 3040 3040 3039 3038 3037 3036 3035 3034 3034 3033 3032 3031 3031 3030 3029 3028 3027 3026 3025 3024 3023 3022 3021 3020 3019 3019 3018 3017 3016 3016 3015 3014 3013 3013 3012 3011 3010 3009 3009 3008 3006 3005 3004 3003
3062 3062 3062 3062 3061 3061 3061 3060 3060 3060 3059 3059 3058 3058 3058 3057 3057 3056 3056 3055 3055 3054 3053 3053 3052 3051 3050 3050 3049 3049 3048 3047 3047 3046 3045 3044 3044 3043 3042 3041 3040 3039 3038 3037 3037 3036 3035 3034 3033 3032 3032 3031 3030 3029 3028 3027 3026 3025 3024 3023 3022 3021 3020 3019 3018 3017 3017 3016 3015 3014 3014 3013 3012 3011 3010 3010 3009 3008 3007 3006 3005 3004 3003 3002 3000 2999
3060 3060 3060 3060 3059 3059 3059 3059 3058 3058 3058 3057 3057 3056 3056 3055 3055 3054 3054 3054 3053 3052 3052 3051 3050 3049 3049 3048 3047 3047 3046 3046 3045 3044 3043 3042 3041 3041 3040 3039 3038 3037 3036 3035 3034 3034 3033 3032 3031 3030 3029 3029 3028 3027 3026 3025 3024 3023 3022 3021 3019 3019 3018 3017 3016 3015 3014 3013 3012 3011 3011 3010 3009 3008 3007 3007 3006 3005 3004 3003 3002 3001 2999 2998 2997 2995
3058 3058 3058 3058 3058 3057 3057 3057 3056 3056 3056 3055 3055 3054 3054 3054 3053 3053 3052 3052 3051 3050 3050 3049 3049 3048 3047 3046 3046 3045 3045 3044 3044 3043 3042 3041 3040 3039 3038 3037 3036 3035 3034 3033 3032 3031 3030 3030 3029 3028 3027 3026 3025 3024 3023 3022 3021 3020 3019 3018 3017 3016 3015 3014 3013 3012 3011 3010 3009 3009 3008 3007 3006 3005 3004 3003 3003 3002 3001 3000 2999 2998 2996 2995 2994 2992
3057 3057 3056 3056 3056 3056 3056 3055 3055 3054 3054 3054 3053 3053 3052 3052 3051 3051 3051 3050 3049 3049 3049 3048 3047 3047 3046 3045 3044 3043 3043 3042 3042 3041 3040 3039 3039 3037 3036 3035 3034 3033 3032 3031 3030 3029 3028 3027 3026 3025 3024 3023 3022 3021 3020 3019 3019 3018 3017 3015 3014 3014 3013 3012 3010 3009 3009 3008 3006 3005 3004 3004 3003 3002 3001 3000 2999 2999 2998 2997 2996 2994 2993 2992 2990 2989
3055 3055 3055 3055 3055 3055 3054 3054 3054 3053 3053 3052 3052 3051 3051 3050 3050 3049 3049 3049 3048 3048 3047 3047 3046 3045 3045 3044 3043 3042 3041 3040 3040 3039 3039 3038 3037 3036 3035 3034 3033 3031 3030 3029 3028 3027 3026 3025 3024 3023 3022 3020 3019 3019 3018 3017 3016 3015 3014 3013 3012 3011 3010 3009 3008 3007 3006 3004 3004 3003 3001 3001 3000 2999 2998 2997 2996 2995 2994 2994 2992 2991 2990 2989 2987 2986
3054 3054 3054 3054 3053 3053 3053 3053 3053 3052 3052 3051 3050 3050 3049 3049 3048 3048 3048 3047 3046 3046 3046 3045 3045 3044 3044 3043 3042 3041 3040 3039 3038 3037 3037 3037 3036 3035 3033 3032 3031 3029 3028 3027 3026 3025 3024 3022 3021 3020 3019 3018 3017 3016 3015 3014 3013 3012 3011 3010 3009 3008 3007 3006 3005 3004 3003 3002 3001 3000 2999 2998 2997 2996 2995 2994 2993 2992 2991 2990 2989 2988 2987 2985 2984 2983
3053 3053 3053 3052 3052 3052 3052 3051 3051 3051 3050 3050 3049 3049 3048 3048 3047 3047 3046 3046 3045 3044 3044 3044 3044 3044 3043 3042 3041 3040 3039 3038 3037 3036 3035 3035 3034 3034 3032 3030 3029 3028 3026 3025 3024 3023 3021 3020 3019 3018 3017 3016 3014 3014 3013 3012 3010 3009 3009 3008 3006 3005 3004 3004 3003 3001 3000 2999 2998 2997 2996 2995 2994 2993 2992 2991 2990 2989 2988 2987 2986 2984 2983 2982 2981 2980
3052 3052 3051 3051 3051 3051 3050 3050 3050 3049 3049 3049 3048 3048 3047 3047 3046 3046 3045 3044 3044 3043 3043 3043 3042 3042 3042 3042 3041 3040 3039 3038 3036 3035 3034 3034 3033 3032 3031 3029 3028 3026 3025 3024 3022 3021 3019 3018 3017 3016 3015 3014 3013 3011 3010 3009 3008 3007 3006 3005 3004 3003 3002 3001 3000 2999 2998 2997 2996 2995 2994 2993 2992 2990 2989 2988 2987 2986 2985 2984 2983 2981 2980 2979 2978 2977
3051 3050 3050 3050 3050 3049 3049 3049 3049 3048 3048 3047 3047 3046 3046 3045 3045 3044 3044 3043 3043 3042 3042 3041 3041 3041 3041 3040 3040 3039 3038 3037 3035 3034 3033 3032 3032 3031 3030 3029 3027 3025 3024 3022 3021 3019 3018 3017 3015 3014 3013 3011 3010 3009 3008 3007 3005 3004 3003 3002 3001 3000 2999 2999 2998 2997 2995 2994 2993 2992 2991 2990 2989 2988 2986 2985 2984 2983 2982 2981 2979 2979 2977 2976 2975 2974
3049 3049 3049 3049 3049 3048 3048 3048 3047 3047 3046 3046 3046 3045 3045 3044 3044 3043 3043 3042 3042 3041 3040 3040 3039 3039 3039 3039 3038 3038 3037 3036 3034 3033 3031 3030 3030 3029 3029 3027 3026 3024 3022 3021 3019 3018 3016 3015 3014 3012 3011 3009 3008 3007 3005 3004 3003 3002 3001 3000 2999 2998 2997 2996 2995 2994 2993 2992 2990 2989 2988 2987 2986 2985 2984 2982 2981 2980 2979 2978 2976 2975 2974 2973 2972 2971
3048 3048 3048 3048 3047 3047 3047 3046 3046 3045 3045 3045 3044 3044 3044 3043 3043 3042 3041 3041 3040 3040 3039 3039 3039 3038 3037 3037 3036 3036 3035 3034 3033 3032 3030 3029 3028 3028 3027 3026 3024 3023 3021 3019 3018 3016 3014 3013 3011 3010 3008 3007 3005 3004 3003 3002 3000 2999 2998 2997 2996 2995 2994 2993 2992 2991 2990 2989 2987 2986 2985 2984 2983 2982 2980 2979 2978 2977 2976 2974 2974 2972 2971 2970 2969 2968
3047 3047 3047 3046 3046 3046 3045 3045 3045 3044 3044 3044 3043 3043 3042 3042 3041 3041 3040 3039 3039 3039 3038 3038 3037 3037 3036 3036 3035 3034 3034 3033 3032 3031 3029 3028 3027 3026 3025 3024 3023 3022 3020 3018 3016 3014 3013 3011 3009 3008 3006 3005 3003 3002 3001 2999 2998 2997 2996 2995 2994 2992 2991 2990 2989 2988 2987 2985 2984 2983 2982 2981 2980 2979 2977 2976 2975 2974 2973 2972 2971 2969 2969 2967 2966 2965
3046 3045 3045 3045 3045 3044 3044 3044 3044 3043 3043 3042 3042 3041 3041 3040 3040 3039 3039 3038 3037 3037 3036 3036 3035 3035 3035 3034 3034 3033 3032 3032 3031 3029 3028 3026 3025 3024 3024 3023 3022 3020 3019 3017 3015 3013 3011 3009 3007 3006 3004 3003 3001 3000 2999 2997 2996 2995 2994 2992 2991 2990 2989 2987 2986 2985 2984 2983 2981 2980 2979 2978 2977 2975 2974 2973 2972 2971 2970 2969 2968 2967 2966 2964 2964 2963
3044 3044 3044 3044 3044 3043 3043 3043 3042 3042 3041 3041 3040 3040 3039 3039 3038 3038 3037 3036 3036 3035 3034 3034 3033 3033 3032 3032 3032 3031 3031 3030 3029 3028 3026 3025 3024 3023 3022 3021 3020 3019 3017 3015 3013 3011 3009 3007 3006 3004 3002 3001 2999 2998 2996 2995 2994 2992 2991 2990 2989 2987 2986 2984 2983 2982 2981 2979 2979 2977 2976 2975 2974 2973 2972 2970 2969 2969 2967 2966 2965 2964 2963 2962 2961 2960
3043 3043 3042 3042 3042 3042 3041 3041 3041 3041 3040 3040 3039 3039 3038 3037 3037 3036 3035 3035 3034 3033 3032 3032 3031 3030 3030 3030 3029 3029 3029 3028 3027 3026 3025 3024 3022 3021 3020 3020 3019 3017 3016 3014 3012 3010 3008 3006 3004 3002 3000 2999 2997 2996 2994 2993 2991 2990 2989 2987 2986 2984 2983 2982 2981 2979 2978 2977 2976 2974 2974 2972 2971 2970 2969 2968 2967 2966 2965 2964 2963 2961 2960 2959 2958 2957
3041 3041 3041 3041 3041 3040 3040 3040 3039 3039 3039 3038 3038 3037 3036 3036 3035 3034 3034 3033 3032 3031 3030 3030 3029 3028 3028 3027 3027 3027 3026 3026 3025 3024 3024 3023 3021 3020 3019 3018 3017 3016 3014 3013 3011 3009 3007 3004 3003 3001 2999 2997 2995 2994 2992 2991 2989 2988 2986 2985 2984 2982 2981 2979 2978 2977 2976 2974 2973 2972 2971 2970 2969 2968 2967 2966 2964 2963 2962 2961 2960 2959 2958 2956 2955 2954
3040 3040 3039 3039 3039 3039 3039 3038 3038 3038 3037 3037 3036 3036 3035 3034 3034 3033 3032 3031 3030 3030 3029 3028 3027 3026 3025 3025 3024 3024 3024 3024 3023 3023 3022 3021 3020 3019 3018 3017 3016 3014 3013 3012 3010 3008 3006 3004 3001 2999 2997 2995 2994 2992 2990 2989 2987 2985 2984 2983 2981 2980 2979 2977 2976 2975 2974 2972 2971 2970 2969 2968 2967 2966 2964 2963 2962 2961 2959 2958 2957 2956 2955 2954 2952 2951
3039 3039 3038 3038 3038 3037 3037 3037 3036 3036 3035 3035 3034 3034 3033 3033 3032 3031 3030 3030 3029 3028 3027 3026 3025 3024 3023 3022 3022 3022 3022 3021 3021 3020 3019 3019 3018 3017 3016 3015 3014 3013 3012 3010 3009 3007 3005 3003 3000 2998 2996 2994 2992 2990 2988 2987 2985 2983 2982 2980 2979 2978 2976 2975 2974 2973 2971 2970 2969 2968 2967 2966 2965 2964 2962 2961 2959 2958 2957 2956 2954 2953 2952 2950 2949 2948
3037 3037 3037 3036 3036 3036 3035 3035 3034 3034 3034 3033 3033 3032 3032 3031 3030 3030 3029 3028 3027 3026 3026 3024 3024 3022 3021 3020 3019 3019 3019 3019 3019 3018 3017 3016 3016 3014 3014 3013 3013 3012 3010 3009 3007 3005 3003 3001 2999 2997 2994 2993 2990 2989 2987 2985 2983 2981 2980 2979 2977 2976 2974 2973 2972 2971 2969 2968 2967 2966 2965 2964 2963 2961 2960 2959 2957 2956 2954 2953 2952 2950 2949 2948 2946 2945
3035 3035 3035 3034 3034 3034 3034 3033 3033 3033 3032 3032 3031 3031 3030 3030 3029 3028 3027 3026 3026 3025 3024 3023 3022 3020 3019 3018 3017 3016 3016 3016 3016 3015 3015 3014 3013 3012 3011 3011 3010 3010 3009 3007 3005 3004 3002 3000 2998 2996 2994 2991 2989 2987 2985 2983 2981 2980 2978 2977 2975 2974 2973 2971 2970 2969 2968 2966 2965 2964 2963 2962 2960 2959 2958 2956 2955 2953 2952 2950 2949 2948 2946 2945 2944 2942
3034 3033 3033 3033 3032 3032 3032 3031 3031 3031 3030 3030 3030 3029 3029 3028 3028 3027 3025 3024 3024 3023 3022 3021 3020 3019 3018 3017 3015 3014 3013 3013 3013 3013 3012 3012 3011 3010 3009 3008 3008 3007 3006 3005 3004 3002 3000 2998 2996 2994 2992 2990 2988 2986 2984 2982 2980 2978 2976 2975 2973 2972 2971 2969 2968 2967 2966 2964 2963 2962 2961 2959 2958 2957 2955 2954 2952 2951 2949 2948 2946 2945 2943 2942 2940 2939
3032 3032 3031 3031 3031 3030 3030 3030 3029 3029 3029 3028 3028 3027 3027 3026 3026 3025 3024 3023 3022 3021 3020 3019 3018 3017 3016 3015 3013 3012 3011 3011 3011 3010 3010 3009 3009 3008 3007 3006 3005 3004 3004 3003 3002 3000 2998 2996 2994 2992 2990 2989 2986 2984 2982 2980 2979 2977 2975 2974 2972 2970 2969 2968 2966 2965 2964 2963 2961 2960 2959 2957 2956 2954 2953 2951 2949 2948 2946 2945 2943 2942 2940 2939 2938 2936
3031 3030 3030 3030 3029 3029 3029 3028 3028 3027 3027 3026 3026 3025 3024 3024 3024 3023 3022 3021 3020 3019 3018 3017 3016 3015 3014 3013 3012 3010 3009 3008 3008 3008 3008 3007 3006 3005 3004 3003 3001 3001 3000 3000 2999 2998 2996 2994 2992 2990 2989 2987 2985 2983 2981 2979 2977 2976 2974 2972 2970 2969 2967 2966 2965 2964 2962 2961 2959 2958 2957 2955 2954 2952 2950 2949 2947 2945 2944 2942 2941 2939 2938 2936 2935 2933
3029 3029 3029 3029 3028 3028 3027 3026 3026 3025 3025 3024 3024 3023 3022 3022 3021 3020 3019 3019 3018 3017 3016 3015 3014 3013 3012 3011 3010 3009 3007 3006 3006 3006 3005 3005 3004 3002 3001 2999 2998 2997 2996 2996 2996 2995 2995 2993 2991 2988 2986 2985 2983 2981 2979 2977 2976 2974 2973 2971 2969 2968 2966 2964 2963 2962 2960 2959 2957 2956 2954 2953 2951 2950 2948 2947 2945 2943 2941 2940 2938 2936 2935 2933 2932 2930
3028 3028 3027 3027 3026 3026 3025 3024 3024 3023 3023 3022 3021 3021 3020 3019 3019 3018 3017 3017 3016 3015 3014 3013 3012 3011 3010 3009 3008 3007 3005 3004 3003 3003 3003 3002 3001 3000 2999 2997 2995 2994 2993 2991 2991 2991 2991 2990 2989 2987 2984 2983 2981 2979 2977 2976 2974 2972 2971 2969 2968 2966 2964 2963 2961 2960 2959 2957 2955 2954 2953 2951 2949 2948 2946 2944 2943 2941 2939 2937 2935 2934 2932 2931 2929 2928
3026 3026 3025 3025 3024 3024 3023 3022 3022 3021 3020 3019 3019 3018 3018 3017 3016 3016 3015 3014 3014 3013 3012 3011 3010 3009 3008 3007 3006 3005 3004 3002 3001 3000 3000 2999 2999 2997 2996 2994 2993 2991 2990 2988 2987 2986 2985 2985 2985 2984 2983 2981 2979 2977 2975 2974 2972 2970 2969 2968 2966 2964 2963 2961 2959 2958 2957 2955 2954 2952 2950 2949 2947 2946 2944 2942 2941 2939 2937 2935 2933 2931 2929 2928 2926 2925
3024 3024 3023 3023 3022 3021 3021 3020 3019 3019 3018 3017 3017 3016 3015 3015 3014 3014 3013 3012 3011 3010 3010 3009 3008 3007 3006 3005 3004 3003 3001 3000 2999 2998 2998 2997 2996 2995 2994 2992 2991 2989 2988 2986 2984 2983 2982 2981 2980 2980 2980 2979 2977 2975 2973 2972 2970 2969 2967 2965 2964 2962 2961 2959 2958 2956 2954 2953 2952 2950 2949 2947 2945 2944 2942 2940 2939 2937 2935 2933 2931 2929 2927 2925 2924 2922
3022 3021 3021 3020 3020 3019 3019 3018 3017 3016 3016 3015 3014 3014 3013 3013 3012 3011 3010 3010 3009 3008 3007 3007 3006 3005 3004 3003 3002 3001 2999 2998 2996 2995 2995 2994 2993 2992 2991 2990 2988 2987 2985 2984 2982 2981 2979 2978 2977 2976 2975 2975 2974 2973 2971 2969 2968 2966 2965 2963 2962 2960 2958 2957 2955 2954 2952 2951 2949 2948 2946 2945 2944 2942 2940 2939 2937 2935 2934 2932 2930 2928 2925 2923 2921 2919
3020 3019 3019 3018 3018 3017 3016 3016 3015 3014 3014 3013 3012 3012 3011 3010 3009 3009 3008 3007 3007 3006 3005 3004 3003 3002 3001 3001 3000 2999 2997 2995 2994 2993 2992 2991 2990 2989 2989 2987 2986 2984 2983 2982 2980 2979 2977 2976 2974 2973 2972 2971 2971 2970 2969 2967 2965 2964 2962 2961 2959 2958 2956 2954 2953 2951 2950 2949 2947 2945 2944 2943 2941 2940 2939 2937 2935 2934 2932 2930 2928 2926 2924 2922 2919 2917
3018 3018 3017 3016 3016 3015 3014 3014 3013 3012 3012 3011 3010 3010 3009 3008 3008 3007 3006 3005 3004 3004 3003 3002 3001 3000 2999 2998 2997 2996 2995 2993 2992 2990 2989 2988 2988 2987 2986 2984 2983 2982 2980 2979 2978 2977 2975 2974 2972 2971 2970 2969 2968 2967 2966 2965 2963 2961 2960 2959 2957 2956 2954 2952 2950 2949 2947 2946 2944 2943 2942 2940 2939 2938 2936 2935 2934 2932 2930 2928 2926 2924 2922 2920 2918 2915
3016 3016 3015 3014 3014 3013 3013 3012 3011 3010 3010 3009 3008 3008 3007 3006 3005 3004 3004 3003 3002 3001 3000 2999 2999 2998 2996 2995 2994 2994 2993 2991 2989 2988 2987 2985 2985 2984 2983 2982 2981 2980 2978 2977 2975 2974 2973 2971 2970 2969 2967 2966 2965 2963 2962 2961 2960 2959 2958 2956 2955 2953 2951 2950 2948 2946 2945 2944 2942 2940 2939 2938 2936 2935 2934 2933 2931 2929 2928 2926 2924 2922 2920 2918 2916 2914
3014 3014 3013 3013 3012 3011 3010 3010 3009 3008 3008 3007 3006 3005 3005 3004 3003 3003 3002 3001 3000 2999 2999 2998 2997 2995 2994 2993 2992 2991 2990 2989 2987 2986 2984 2983 2982 2981 2980 2979 2978 2977 2976 2974 2973 2971 2970 2969 2967 2966 2964 2963 2962 2961 2959 2958 2956 2955 2954 2954 2953 2951 2949 2947 2945 2944 2943 2941 2939 2938 2937 2935 2934 2933 2931 2930 2929 2927 2925 2924 2922 2920 2918 2916 2914 2913
3013 3012 3011 3011 3010 3009 3009 3008 3007 3006 3006 3005 3004 3004 3003 3002 3001 3001 3000 2999 2998 2998 2997 2996 2995 2994 2993 2991 2990 2989 2987 2986 2985 2984 2982 2981 2980 2979 2978 2977 2976 2975 2974 2972 2971 2969 2968 2966 2965 2963 2962 2960 2959 2958 2957 2955 2954 2952 2951 2950 2949 2949 2947 2945 2944 2942 2940 2939 2937 2936 2934 2933 2932 2930 2929 2927 2926 2924 2922 2921 2919 2917 2915 2913 2912 2910
3011 3010 3009 3009 3008 3007 3007 3006 3005 3004 3004 3003 3002 3001 3001 3000 2999 2999 2998 2997 2996 2996 2995 2994 2993 2992 2991 2989 2988 2986 2985 2984 2982 2981 2980 2979 2977 2976 2975 2974 2973 2972 2971 2970 2969 2967 2966 2964 2962 2961 2960 2958 2957 2955 2954 2953 2951 2949 2948 2947 2946 2945 2944 2943 2941 2939 2938 2936 2935 2933 2932 2930 2929 2928 2926 2924 2923 2921 2919 2918 2916 2914 2912 2910 2908 2907
3009 3008 3007 3007 3006 3005 3004 3004 3003 3002 3002 3001 3000 2999 2999 2998 2998 2997 2996 2995 2994 2994 2993 2992 2991 2990 2989 2988 2986 2984 2983 2981 2980 2979 2977 2976 2975 2974 2973 2972 2971 2970 2969 2968 2967 2965 2964 2962 2960 2959 2958 2956 2954 2953 2952 2951 2949 2947 2945 2944 2943 2942 2941 2940 2939 2937 2935 2934 2932 2931 2929 2928 2926 2925 2924 2922 2920 2919 2917 2915 2913 2911 2909 2907 2905 2904
3007 3006 3005 3005 3004 3003 3003 3002 3001 3000 2999 2999 2998 2997 2997 2996 2996 2995 2994 2993 2993 2992 2991 2990 2989 2989 2988 2986 2984 2982 2981 2979 2978 2976 2975 2974 2973 2972 2971 2969 2969 2968 2967 2966 2964 2964 2962 2961 2959 2957 2956 2954 2953 2951 2950 2949 2947 2945 2944 2942 2940 2939 2938 2938 2937 2935 2933 2931 2929 2928 2927 2925 2924 2922 2921 2919 2918 2916 2914 2913 2911 2909 2907 2905 2903 2901
3005 3004 3004 3003 3002 3001 3000 3000 2999 2998 2998 2997 2996 2995 2995 2994 2994 2993 2992 2992 2991 2990 2989 2989 2988 2987 2986 2985 2983 2981 2979 2978 2976 2975 2973 2972 2971 2970 2969 2967 2966 2965 2964 2964 2962 2961 2960 2959 2958 2956 2954 2953 2951 2949 2948 2946 2945 2944 2942 2940 2938 2937 2935 2934 2934 2932 2931 2929 2927 2925 2924 2922 2921 2919 2918 2917 2915 2914 2912 2910 2909 2907 2905 2903 2901 2899
3003 3002 3001 3001 3000 2999 2999 2998 2997 2996 2996 2995 2994 2993 2993 2992 2991 2991 2990 2989 2989 2988 2987 2987 2986 2985 2984 2984 2982 2981 2979 2977 2975 2974 2972 2970 2969 2968 2967 2965 2964 2963 2962 2961 2960 2959 2958 2957 2956 2955 2953 2951 2949 2948 2946 2944 2943 2941 2940 2938 2936 2935 2933 2932 2930 2929 2928 2926 2925 2923 2921 2919 2918 2916 2915 2914 2913 2911 2910 2908 2907 2905 2903 2901 2899 2897
3001 3000 2999 2999 2998 2997 2996 2996 2995 2994 2994 2993 2992 2991 2990 2990 2989 2989 2988 2987 2987 2986 2985 2984 2984 2983 2983 2982 2981 2979 2978 2976 2974 2972 2970 2969 2968 2966 2965 2964 2963 2961 2960 2959 2958 2957 2956 2955 2954 2953 2952 2950 2949 2947 2945 2943 2941 2939 2938 2936 2935 2933 2931 2930 2929 2927 2925 2924 2922 2921 2919 2917 2915 2914 2912 2911 2910 2909 2908 2906 2904 2903 2901 2899 2897 2895
2999 2998 2997 2997 2996 2995 2994 2994 2993 2992 2991 2991 2990 2989 2988 2987 2987 2986 2986 2985 2984 2984 2983 2982 2982 2981 2980 2979 2979 2978 2977 2975 2974 2972 2970 2968 2966 2965 2964 2962 2961 2960 2959 2957 2956 2955 2954 2953 2952 2951 2949 2948 2947 2945 2944 2942 2939 2937 2936 2934 2933 2931 2930 2928 2927 2925 2923 2921 2919 2918 2916 2915 2913 2911 2909 2908 2907 2906 2905 2904 2902 2900 2898 2896 2895 2893
2997 2996 2995 2994 2994 2993 2992 2992 2991 2990 2989 2989 2988 2987 2986 2985 2984 2984 2983 2983 2982 2981 2981 2980 2979 2979 2978 2977 2976 2976 2975 2974 2972 2971 2969 2967 2965 2964 2962 2961 2959 2958 2957 2956 2955 2953 2952 2951 2950 2949 2947 2946 2944 2943 2942 2940 2939 2936 2934 2932 2931 2929 2928 2926 2924 2923 2921 2919 2917 2916 2914 2912 2910 2908 2907 2905 2904 2903 2902 2901 2900 2898 2896 2894 2892 2890
2995 2994 2993 2993 2992 2991 2990 2989 2989 2988 2987 2987 2986 2985 2984 2983 2982 2982 2981 2980 2979 2979 2978 2978 2977 2976 2975 2975 2974 2973 2972 2971 2970 2969 2968 2966 2964 2963 2961 2960 2958 2957 2956 2954 2954 2952 2951 2949 2949 2947 2946 2944 2943 2941 2940 2939 2937 2935 2932 2930 2929 2927 2925 2924 2922 2921 2919 2917 2915 2914 2912 2909 2907 2905 2904 2902 2901 2900 2899 2898 2897 2895 2893 2891 2889 2887
2993 2992 2991 2991 2990 2989 2989 2988 2987 2986 2985 2985 2984 2983 2982 2981 2980 2979 2979 2978 2977 2977 2976 2975 2974 2974 2973 2972 2971 2970 2970 2969 2968 2967 2965 2964 2963 2961 2960 2958 2957 2956 2954 2953 2952 2951 2949 2949 2947 2946 2945 2943 2941 2939 2937 2936 2935 2933 2931 2929 2927 2925 2923 2921 2920 2919 2917 2915 2913 2912 2910 2908 2905 2903 2901 2899 2898 2897 2896 2895 2894 2893 2891 2889 2887 2885
2990 2990 2989 2989 2988 2987 2986 2986 2985 2984 2983 2983 2982 2981 2980 2979 2978 2977 2976 2975 2975 2974 2974 2973 2972 2972 2971 2970 2969 2968 2967 2966 2965 2964 2963 2962 2960 2959 2958 2956 2955 2954 2952 2951 2950 2949 2948 2947 2946 2945 2944 2942 2940 2937 2935 2934 2932 2931 2929 2927 2925 2923 2921 2919 2918 2916 2914 2913 2911 2909 2908 2906 2904 2902 2899 2897 2895 2894 2893 2892 2891 2890 2888 2886 2884 2883
2988 2988 2987 2986 2986 2985 2984 2984 2983 2982 2981 2980 2980 2979 2978 2977 2976 2975 2974 2973 2973 2972 2971 2970 2970 2969 2969 2968 2967 2966 2965 2964 2963 2962 2960 2959 2958 2956 2955 2954 2952 2951 2950 2949 2948 2947 2946 2945 2944 2943 2942 2940 2939 2937 2934 2932 2929 2928 2926 2925 2924 2921 2919 2917 2915 2914 2912 2910 2909 2907 2905 2903 2901 2899 2897 2895 2893 2891 2890 2889 2888 2886 2885 2883 2881 2880